CAPE
1594 1493 1539 1700 1893 1731 1695 1768 1672 1625 1627 1724 1729 1734 1722 1666 1606 1469 1248 1057 901 745 741 658 478 400 40 10 38 46 89 71 76 32 12 42 0 8 5 0 16 0
1759 1727 1762 1742 1803 1869 1803 1742 1712 1717 1715 1679 1662 1644 1631 1591 1544 1346 1142 1063 918 798 669 647 538 339 21 19 19 45 67 58 51 75 44 10 1 0 3 0 0 0
1923 1902 1943 1936 1860 1888 1917 1887 1783 1775 1756 1693 1620 1577 1563 1483 1428 1233 1114 1100 959 838 773 612 590 278 6 20 23 56 53 28 26 51 52 7 0 0 0 0 0 0
2067 2041 2086 2080 1988 1944 1956 1945 1913 1893 1832 1666 1574 1512 1444 1376 1293 1224 1174 1326 1039 908 862 661 544 438 239 13 32 39 36 10 18 26 24 21 10 0 0 0 0 0
2125 2174 2193 2203 2127 2024 2022 2016 1968 1960 1833 1574 1451 1382 1361 1364 1256 1223 1200 1190 1100 1050 974 749 667 580 266 133 14 24 31 0 1 8 0 2 7 13 0 0 0 0
2163 2239 2286 2298 2253 2144 2075 2068 2037 1944 1777 1516 1383 1384 1291 1406 1284 1216 1226 1201 1137 1077 1005 924 947 724 436 278 0 2 25 5 0 2 0 0 0 6 4 0 0 0
2322 2315 2370 2372 2350 2252 2141 2089 2008 1880 1712 1551 1425 1490 1346 1362 1326 1267 1263 1234 1184 1102 1034 953 910 741 487 289 0 0 2 10 0 1 12 2 0 0 0 0 0 0
2520 2459 2441 2438 2433 2392 2252 2103 1991 1877 1751 1617 1558 1514 1526 1419 1353 1294 1294 1298 1274 1219 1047 812 625 456 272 29 2 0 0 7 2 2 4 17 18 0 0 0 0 0
2678 2618 2561 2517 2471 2473 2390 2208 1997 1853 1694 1732 1696 1605 1584 1557 1461 1387 1365 1383 1321 1258 1075 740 527 394 181 33 16 0 0 2 12 6 4 2 11 26 7 0 0 0
2777 2718 2654 2598 2538 2504 2479 2344 2079 1897 1766 1787 1825 1764 1680 1637 1538 1436 1372 1309 1241 1185 1067 861 693 606 476 54 39 7 0 0 6 5 5 2 0 5 9 0 0 0
2836 2780 2703 2652 2618 2550 2526 2450 2237 2020 1909 1838 1883 1893 1816 1715 1641 1524 1416 1327 1232 1164 1082 966 840 740 643 493 178 40 12 5 10 5 0 0 0 0 73 0 0 0
2878 2838 2757 2692 2651 2601 2528 2474 2355 2155 2079 1976 1891 1944 1958 1852 1774 1701 1619 1492 1349 1214 1084 994 892 820 739 638 522 115 38 10 7 10 6 66 205 0 9 1 0 0
2879 2869 2826 2738 2679 2630 2546 2475 2406 2261 2162 2132 2027 1946 1970 1987 1898 1818 1762 1714 1551 1242 1080 1002 926 874 825 746 647 405 54 38 9 25 206 225 165 96 206 178 38 0
2886 2880 2858 2788 2715 2640 2566 2481 2439 2362 2206 2170 2159 2062 1972 1970 1968 1905 1848 1764 1693 1439 1160 1030 975 912 859 784 698 612 434 56 223 314 371 377 337 353 262 272 267 241
2917 2886 2860 2821 2757 2670 2584 2497 2439 2410 2323 2198 2166 2176 2090 1988 1953 1937 1901 1829 1735 1584 1424 1241 1139 1064 984 889 782 711 674 516 284 316 382 512 599 506 386 359 312 262
2971 2932 2878 2827 2787 2721 2640 2548 2454 2410 2394 2307 2205 2170 2165 2117 2031 1968 1934 1895 1819 1712 1594 1477 1370 1253 1144 1030 930 867 838 725 422 416 550 697 810 439 355 440 347 240
3013 2994 2912 2847 2808 2752 2700 2618 2504 2408 2384 2361 2298 2219 2154 2127 2095 2057 2017 1962 1909 1819 1742 1651 1559 1425 1287 1164 1097 1065 1024 907 636 686 838 923 900 414 465 475 340 269
3026 3012 2956 2895 2832 2799 2745 2688 2588 2474 2377 2328 2317 2287 2235 2176 2126 2108 2094 2068 2032 1972 1882 1774 1657 1533 1445 1355 1302 1251 1178 1065 858 1038 1091 1071 1048 843 602 394 371 325
3038 2999 2967 2913 2875 2849 2800 2722 2651 2559 2433 2336 2294 2278 2288 2276 2236 2164 2132 2104 2091 2062 2012 1916 1806 1687 1592 1537 1502 1441 1353 1212 1198 1273 1240 1161 1118 805 571 442 343 372
3056 3009 2963 2912 2875 2854 2818 2770 2702 2614 2500 2398 2313 2272 2293 2328 2316 2264 2202 2170 2161 2138 2106 2022 1974 1902 1814 1732 1662 1598 1524 1428 1478 1505 1453 1378 1225 814 679 663 481 344
3101 3054 2998 2930 2876 2852 2846 2828 2780 2690 2582 2497 2410 2347 2346 2374 2380 2351 2287 2238 2219 2228 2220 2181 2103 2054 1988 1922 1866 1786 1813 1804 1699 1591 1478 1359 1280 1056 859 674 581 409
3112 3097 3053 2972 2896 2841 2850 2880 2865 2816 2735 2632 2546 2477 2465 2499 2474 2424 2390 2361 2341 2314 2268 2253 2189 2133 2100 2050 2064 2151 2119 2041 1871 1656 1526 1446 1367 1272 965 749 598 516
3166 3130 3094 3027 2944 2853 2836 2897 2949 2949 2899 2808 2715 2659 2638 2675 2685 2639 2572 2511 2491 2455 2424 2398 2349 2367 2373 2412 2459 2415 2282 2143 1939 1764 1606 1434 1315 1247 1022 772 590 498
3216 3180 3130 3057 2973 2895 2838 2916 3002 3047 3043 2972 2914 2846 2803 2815 2866 2874 2855 2837 2814 2788 2736 2735 2757 2735 2719 2722 2651 2508 2357 2168 2004 1784 1664 1513 1318 1159 983 848 652 874
3238 3240 3187 3116 3053 2985 2882 2916 3033 3141 3158 3108 3082 3024 2994 2988 2986 2996 3030 3041 3050 3041 3012 3024 3004 2950 2903 2846 2707 2522 2292 2113 1915 1761 1602 1426 1336 1216 1051 846 733 1361
3203 3307 3296 3246 3187 3092 2992 2981 3056 3155 3211 3214 3225 3202 3160 3110 3082 3081 3103 3125 3122 3130 3132 3120 3103 3037 2938 2816 2613 2455 2236 2056 1898 1711 1568 1431 1315 1161 1038 786 582 484
Wind_Speed
12 10 10 9 9 10 13 14 14 16 16 16 15 13 13 13 14 16 16 16 17 18 19 20 20 21 nan nan nan nan nan nan nan nan nan nan nan nan nan nan nan nan
14 13 12 11 11 12 13 14 15 15 16 16 15 14 12 13 14 15 16 17 18 18 19 20 20 21 nan nan nan nan nan nan nan nan nan nan nan nan nan nan nan nan
15 14 14 14 14 15 15 15 15 15 16 16 16 15 13 13 14 14 16 18 18 19 20 20 20 20 nan nan nan nan nan nan nan nan nan nan nan nan nan nan nan nan
15 15 15 15 17 18 17 16 15 15 15 16 16 14 13 13 13 15 16 18 18 19 20 20 20 19 20 nan nan nan nan nan nan nan nan nan nan nan nan nan nan nan
16 15 16 17 19 19 18 16 16 16 16 16 16 14 13 13 13 14 15 16 18 19 19 19 19 19 19 20 nan nan nan nan nan nan nan nan nan nan nan nan nan nan
16 16 17 19 20 20 18 15 14 15 15 16 15 13 12 13 13 15 15 17 17 18 18 17 18 19 20 21 nan nan nan nan nan nan nan nan nan nan nan nan nan nan
18 18 18 20 19 17 15 13 11 13 14 14 14 11 11 12 13 15 16 16 17 17 18 18 20 21 21 21 nan nan nan nan nan nan nan nan nan nan nan nan nan nan
18 17 17 17 15 12 10 9 9 11 13 13 11 10 10 12 13 13 14 16 17 18 19 20 20 21 22 nan nan nan nan nan nan nan nan nan nan nan nan nan nan nan
15 13 12 10 8 6 5 6 8 10 11 11 10 9 9 10 12 13 15 16 17 19 20 20 21 22 23 nan nan nan nan nan nan nan nan nan nan nan nan nan nan nan
11 9 8 6 4 3 4 5 8 9 9 9 9 10 10 9 11 13 15 17 18 20 21 22 23 23 25 nan nan nan nan nan nan nan nan nan nan nan nan nan nan nan
10 9 7 5 3 3 3 5 7 8 7 7 9 9 10 11 11 13 15 17 18 20 22 23 24 25 27 29 31 nan nan nan nan nan nan nan nan nan nan nan nan nan
10 9 7 6 4 4 5 5 6 7 6 6 7 9 10 11 12 13 15 18 19 21 23 23 24 25 28 31 35 37 nan nan nan nan nan nan 36 nan nan nan nan nan
10 9 8 8 7 6 7 6 5 5 6 6 7 8 11 11 12 14 15 18 19 20 22 24 24 25 28 32 35 38 nan nan nan nan 39 38 36 nan 36 34 nan nan
10 10 11 10 10 10 9 7 6 6 6 8 8 8 9 11 12 14 15 17 18 20 21 22 23 24 28 32 35 38 40 nan 41 42 41 39 37 37 37 36 36 37
14 14 15 15 13 12 10 8 7 7 9 9 9 8 8 9 11 13 16 17 18 19 21 21 22 25 29 33 35 38 39 41 43 43 43 40 38 38 37 37 36 37
20 19 18 18 17 14 11 9 9 10 11 10 9 9 9 9 11 13 15 17 18 19 20 21 24 26 31 38 39 40 41 41 42 43 42 40 39 38 37 37 37 37
25 22 21 20 18 16 14 12 12 13 13 11 10 10 10 10 12 13 15 17 19 20 22 23 25 28 36 39 42 45 43 42 43 42 41 40 40 39 38 37 36 37
27 26 23 20 20 18 16 14 15 14 13 11 11 11 11 11 12 13 15 18 19 20 22 23 25 30 38 41 44 47 46 44 41 40 39 40 39 38 37 36 37 37
29 29 25 21 19 18 18 18 17 15 12 11 10 11 13 12 12 13 15 17 19 20 21 23 24 31 38 43 45 48 49 45 39 37 37 38 37 37 36 37 38 38
30 30 27 22 20 20 21 20 18 14 12 11 11 12 12 12 12 14 16 18 20 22 22 23 26 33 40 43 46 49 49 44 35 35 36 37 37 37 38 39 40 41
30 30 28 24 22 23 23 21 18 16 14 12 12 11 11 11 13 15 18 20 22 24 24 25 27 36 41 45 48 50 49 44 36 35 37 38 39 40 41 42 42 42
30 30 29 27 25 25 24 22 20 17 14 14 13 11 10 11 12 15 19 22 24 26 27 27 28 39 44 48 51 53 53 43 39 39 39 40 41 42 43 44 44 44
31 31 31 29 28 27 24 22 21 18 16 16 13 11 11 12 14 17 19 22 25 27 29 28 30 40 48 50 51 54 52 45 43 42 42 42 43 43 45 45 45 45
31 32 32 30 29 27 24 23 21 19 17 16 13 12 13 14 16 18 20 22 25 27 29 30 32 40 49 50 52 54 54 49 46 44 43 44 43 44 46 46 46 48
33 33 32 31 29 26 25 23 20 18 18 18 15 14 14 16 19 21 23 24 25 27 33 35 36 41 49 51 52 54 53 49 48 45 44 44 46 47 47 47 45 47
34 34 32 30 27 25 23 21 21 21 20 18 17 17 17 19 23 24 26 27 29 32 35 37 40 42 46 51 53 55 56 52 49 46 43 45 46 47 47 45 44 44
Wind_Direction
304 297 302 301 301 299 301 304 306 311 316 318 321 322 327 326 325 331 332 331 333 332 329 332 332 331 nan nan nan nan nan nan nan nan nan nan nan nan nan nan nan nan
305 303 295 292 287 282 286 296 305 310 312 316 318 317 317 317 326 328 330 332 334 337 333 332 332 329 nan nan nan nan nan nan nan nan nan nan nan nan nan nan nan nan
293 296 299 295 290 290 291 291 299 303 306 313 311 309 312 315 321 327 329 331 334 335 333 333 332 330 nan nan nan nan nan nan nan nan nan nan nan nan nan nan nan nan
287 291 290 289 284 287 288 290 294 296 297 301 307 307 309 312 319 328 330 332 331 331 330 330 334 330 327 nan nan nan nan nan nan nan nan nan nan nan nan nan nan nan
284 282 279 279 278 282 285 291 297 296 300 304 303 303 307 314 321 329 330 331 328 328 328 332 330 330 328 328 nan nan nan nan nan nan nan nan nan nan nan nan nan nan
277 276 275 276 277 281 284 288 293 296 299 300 306 303 311 319 326 333 334 332 329 329 331 331 329 330 328 330 nan nan nan nan nan nan nan nan nan nan nan nan nan nan
282 276 277 273 275 280 281 283 288 294 296 297 293 307 312 321 330 335 333 333 332 332 332 331 330 329 328 328 nan nan nan nan nan nan nan nan nan nan nan nan nan nan
285 278 278 276 281 279 279 280 283 287 290 288 302 308 313 325 332 331 331 333 333 332 331 332 331 331 331 nan nan nan nan nan nan nan nan nan nan nan nan nan nan nan
287 287 285 286 289 274 283 283 278 277 281 294 297 301 312 324 329 328 329 332 333 331 331 332 332 333 333 nan nan nan nan nan nan nan nan nan nan nan nan nan nan nan
302 299 300 298 304 275 293 285 272 270 275 285 293 297 315 322 325 325 325 331 333 332 333 331 332 335 336 nan nan nan nan nan nan nan nan nan nan nan nan nan nan nan
316 305 304 311 316 270 296 280 273 269 264 280 286 304 314 316 321 320 325 330 333 333 331 332 336 337 337 336 336 nan nan nan nan nan nan nan nan nan nan nan nan nan
317 310 310 313 310 288 287 275 267 264 264 264 287 304 307 316 322 321 326 330 330 329 329 333 334 335 336 337 338 339 nan nan nan nan nan nan 342 nan nan nan nan nan
314 314 300 298 296 284 267 260 257 259 265 275 283 299 307 316 323 327 323 322 325 323 327 331 331 331 333 337 339 340 nan nan nan nan 338 337 336 nan 332 331 nan nan
303 295 289 289 282 274 270 268 260 255 260 262 272 298 310 321 324 324 315 308 315 321 323 322 324 328 335 339 340 340 338 nan 336 334 332 330 330 332 331 329 329 329
281 276 276 279 280 277 276 275 270 265 262 264 276 293 296 313 311 305 304 309 313 317 319 320 325 332 336 338 338 338 336 336 334 333 331 328 327 329 328 328 327 328
283 275 275 279 283 284 280 274 266 264 267 274 284 293 299 299 296 299 305 311 316 320 319 322 329 331 339 343 340 336 335 333 333 334 333 330 327 326 327 327 327 327
290 284 278 282 286 282 273 268 267 262 267 275 279 286 296 295 296 304 309 313 321 323 325 326 328 332 342 341 341 339 333 332 332 333 332 329 326 326 328 328 326 326
299 292 287 286 284 284 277 269 262 262 266 273 279 287 287 287 301 312 316 319 321 325 327 328 331 340 341 339 339 338 332 328 327 329 329 328 328 328 327 326 327 327
301 297 295 288 287 283 272 264 265 264 267 273 284 281 282 298 312 316 321 325 327 330 334 335 339 342 340 338 336 334 333 329 326 330 328 327 328 329 327 326 325 326
301 301 298 292 282 275 269 268 269 270 264 260 260 271 291 307 314 322 324 326 330 332 336 339 346 341 338 335 334 333 334 335 333 332 329 327 329 328 327 327 326 325
301 304 302 292 280 274 271 271 272 264 260 255 260 277 294 306 315 325 327 326 327 329 332 340 346 338 331 331 332 334 336 338 335 330 328 328 328 326 326 327 325 326
302 304 301 291 281 274 274 274 271 269 265 259 258 265 275 288 302 315 323 324 324 326 332 343 337 325 326 329 333 334 335 331 330 329 328 326 326 325 324 324 324 323
299 302 299 292 282 278 277 275 272 267 260 255 260 269 283 297 309 317 318 318 321 325 335 336 316 320 324 328 331 334 330 327 325 324 325 325 325 324 323 320 318 318
295 298 298 292 283 281 279 272 267 258 258 260 270 280 292 303 308 306 306 314 321 328 328 321 313 316 322 326 329 330 329 327 323 320 321 321 321 316 314 315 319 326
291 293 293 290 285 280 273 268 266 263 257 258 268 279 291 293 294 300 302 305 315 317 315 316 308 314 321 324 325 326 326 324 320 317 316 318 316 313 310 311 313 316
283 285 285 286 284 277 271 268 260 255 261 270 275 279 284 285 290 294 298 300 302 304 308 310 308 309 317 321 323 324 328 323 318 315 315 316 316 314 311 310 311 310